KB4UTZ Weather Reports


time (UTC)temp
F
wind
direction
speed
knots
gust
knots
rain 1hr
in
rain 24hr
in
rain mn
in
humidity
%
barometer
mb
20260509032046 52 338 0.9 1.7 0.00 0.00 0.00 93 1017.4
20260509031046 52 313 0.9 2.6 0.00 0.00 0.00 92 1017.5
20260509030046 52 331 0.9 2.6 0.00 0.00 0.00 92 1017.4
20260509025046 53 352 0.9 1.7 0.00 0.00 0.00 91 1017.5
20260509024046 53 340 0.0 1.7 0.00 0.00 0.00 91 1017.4
20260509023046 53 0.0 0.9 0.00 0.00 0.00 89 1017.4
20260509022046 53 304 0.0 1.7 0.00 0.00 0.00 89 1017.4
20260509021046 53 321 0.0 1.7 0.00 0.00 0.00 88 1017.4
20260509020047 54 0.0 0.9 0.00 0.00 0.00 87 1017.4
20260509015047 54 325 0.0 1.7 0.00 0.00 0.00 87 1017.3
20260509014047 55 0.0 0.9 0.00 0.00 0.00 87 1017.3
20260509013047 55 319 0.9 1.7 0.00 0.00 0.00 85 1017.1
20260509012106 56 0.0 0.9 0.00 0.00 0.00 84 1017.2
20260509011107 57 308 0.0 1.7 0.00 0.00 0.00 82 1017.0
20260509010046 57 338 0.9 1.7 0.00 0.00 0.00 80 1017.0
20260509005047 58 296 0.0 1.7 0.00 0.00 0.00 80 1017.2
20260509004047 58 289 0.9 1.7 0.00 0.00 0.00 77 1016.9
20260509003047 59 310 0.9 1.7 0.00 0.00 0.00 76 1017.1
20260509002046 60 314 0.0 1.7 0.00 0.00 0.00 75 1017.0
20260509001047 61 295 0.0 1.7 0.00 0.00 0.00 73 1016.8
20260509000046 62 265 0.0 1.7 0.00 0.00 0.00 71 1016.9
20260508235047 63 293 0.9 1.7 0.00 0.00 0.00 68 1016.9
20260508234047 63 357 0.0 0.9 0.00 0.00 0.00 67 1016.8
20260508233047 64 303 0.9 1.7 0.00 0.00 0.00 67 1016.9
20260508232046 64 340 1.7 1.7 0.00 0.00 0.00 64 1016.9
20260508231047 65 320 1.7 1.7 0.00 0.00 0.00 61 1016.9
20260508230046 66 325 1.7 2.6 0.00 0.00 0.00 60 1016.9
20260508225047 66 327 1.7 2.6 0.00 0.00 0.00 58 1016.8
20260508224047 68 333 2.6 2.6 0.00 0.00 0.00 56 1016.8
20260508223047 69 347 0.9 3.5 0.00 0.00 0.00 56 1016.9
20260508222046 69 329 1.7 2.6 0.00 0.00 0.00 51 1016.8
20260508221047 70 34 0.9 3.5 0.00 0.00 0.00 50 1016.9
20260508220106 71 350 0.9 3.5 0.00 0.00 0.00 44 1016.8
20260508215047 71 320 1.7 3.5 0.00 0.00 0.00 44 1016.9
20260508214047 71 225 1.7 4.3 0.00 0.00 0.00 44 1016.9
20260508213047 71 225 1.7 6.1 0.00 0.00 0.00 45 1017.0
20260508212046 71 117 2.6 4.3 0.00 0.00 0.00 46 1017.1
20260508211046 71 154 1.7 3.5 0.00 0.00 0.00 46 1016.8
20260508210046 71 198 1.7 3.5 0.00 0.00 0.00 47 1016.8
20260508205047 70 204 2.6 4.3 0.00 0.00 0.00 47 1016.9
20260508204107 70 208 1.7 5.2 0.00 0.00 0.00 49 1017.1
20260508203047 70 167 1.7 3.5 0.00 0.00 0.00 51 1017.0
20260508202047 70 215 0.9 2.6 0.00 0.00 0.00 52 1017.0
20260508201046 70 176 0.9 3.5 0.00 0.00 0.00 51 1017.0
20260508200046 71 252 2.6 3.5 0.00 0.00 0.00 50 1017.2
20260508195047 71 55 1.7 6.1 0.00 0.00 0.00 49 1017.4
20260508194047 70 284 1.7 6.1 0.00 0.00 0.00 49 1017.6
20260508193047 71 131 2.6 5.2 0.00 0.00 0.00 47 1018.1
20260508192107 71 146 1.7 5.2 0.00 0.00 0.00 48 1018.3
20260508191046 71 215 1.7 4.3 0.00 0.00 0.00 46 1018.5
20260508190046 71 199 1.7 3.5 0.00 0.00 0.00 45 1018.5
20260508185047 71 201 2.6 5.2 0.00 0.00 0.00 46 1018.6
20260508184107 71 117 1.7 2.6 0.00 0.00 0.00 44 1018.8
20260508183046 72 178 0.9 3.5 0.00 0.00 0.00 45 1018.8
20260508182107 70 239 1.7 4.3 0.00 0.00 0.00 45 1019.0
20260508181046 71 212 2.6 3.5 0.00 0.00 0.00 44 1019.0
20260508180046 71 228 1.7 3.5 0.00 0.00 0.00 45 1019.1
20260508175046 70 245 2.6 4.3 0.00 0.00 0.00 46 1019.1
20260508174106 70 247 1.7 5.2 0.00 0.00 0.00 45 1019.2
20260508173046 69 222 2.6 4.3 0.00 0.00 0.00 46 1019.6
20260508172046 68 262 1.7 6.1 0.00 0.00 0.00 46 1019.7
20260508171046 71 246 1.7 3.5 0.00 0.00 0.00 47 1020.0
20260508170045 69 201 1.7 3.5 0.00 0.00 0.00 45 1020.2
20260508165046 68 188 1.7 3.5 0.00 0.00 0.00 46 1020.0
20260508164045 66 282 3.5 8.7 0.00 0.00 0.00 45 1020.5
20260508163045 67 83 2.6 5.2 0.00 0.00 0.00 42 1020.8
20260508162045 68 201 2.6 4.3 0.00 0.00 0.00 46 1020.9
20260508161045 66 248 1.7 4.3 0.00 0.00 0.00 49 1021.0
20260508160046 65 145 2.6 5.2 0.00 0.00 0.00 47 1021.0
20260508155046 67 151 2.6 5.2 0.00 0.00 0.00 50 1021.0
20260508154047 67 213 1.7 2.6 0.00 0.00 0.00 47 1021.4
20260508153106 66 291 1.7 2.6 0.00 0.00 0.00 46 1021.4
20260508152046 65 153 1.7 2.6 0.00 0.00 0.00 48 1021.6
20260508151046 65 295 1.7 2.6 0.00 0.00 0.00 49 1021.6
20260508150046 65 132 1.7 3.5 0.00 0.00 0.00 49 1021.7
20260508145046 64 203 1.7 4.3 0.00 0.00 0.00 53 1021.6
20260508144046 63 262 1.7 2.6 0.00 0.00 0.00 56 1021.7
20260508143046 62 109 1.7 3.5 0.00 0.00 0.00 67 1021.8
20260508142046 61 124 0.9 2.6 0.00 0.00 0.00 68 1021.9
20260508141046 60 117 0.9 2.6 0.00 0.00 0.00 69 1022.0
20260508140046 58 160 0.9 2.6 0.00 0.00 0.00 72 1022.0
20260508135046 58 139 1.7 2.6 0.00 0.00 0.00 71 1022.1
20260508134106 57 154 0.9 7.0 0.00 0.00 0.00 76 1022.0
20260508133046 55 184 1.7 2.6 0.00 0.00 0.00 77 1022.2
20260508132046 54 34 0.9 2.6 0.00 0.00 0.00 79 1022.1
20260508131046 53 157 0.9 1.7 0.00 0.00 0.00 82 1022.1
20260508130045 53 154 0.9 2.6 0.00 0.00 0.00 83 1022.1
20260508125046 53 173 1.7 1.7 0.00 0.00 0.00 83 1022.2
20260508124046 51 193 1.7 2.6 0.00 0.00 0.00 85 1022.2
20260508123046 51 158 0.9 2.6 0.00 0.00 0.00 87 1022.1
20260508122046 50 164 1.7 3.5 0.00 0.00 0.00 89 1022.1
20260508121106 49 34 1.7 5.2 0.00 0.00 0.00 93 1022.0
20260508120046 48 187 0.9 2.6 0.00 0.00 0.00 98 1021.8
20260508115106 47 310 0.9 3.5 0.00 0.01 0.00 98 1021.6
20260508114046 47 0.0 1.7 0.00 0.01 0.00 98 1021.5
20260508113046 47 90 0.9 1.7 0.00 0.01 0.00 98 1021.3
20260508112046 47 100 0.0 1.7 0.00 0.01 0.00 98 1021.2
20260508111046 47 128 0.9 2.6 0.00 0.01 0.00 98 1021.1
20260508110127 47 73 1.7 3.5 0.00 0.01 0.00 98 1021.0
20260508105126 47 124 0.9 2.6 0.00 0.01 0.00 98 1020.8
20260508104046 48 48 0.9 2.6 0.00 0.01 0.00 98 1020.7
20260508103046 48 95 0.9 1.7 0.00 0.02 0.00 98 1020.6
20260508102046 48 48 0.0 1.7 0.00 0.02 0.00 98 1020.5
20260508101046 48 62 1.7 2.6 0.00 0.04 0.00 98 1020.3
20260508100045 48 48 0.9 1.7 0.00 0.05 0.00 98 1020.2
20260508095046 48 60 1.7 3.5 0.00 0.05 0.00 98 1020.2
20260508094106 48 67 0.9 1.7 0.00 0.06 0.00 98 1020.2
20260508093045 49 143 1.7 2.6 0.00 0.06 0.00 98 1020.2
20260508092045 49 112 0.9 2.6 0.00 0.06 0.00 98 1020.1
20260508091046 49 174 0.9 2.6 0.00 0.08 0.00 98 1020.1
20260508090045 49 41 2.6 4.3 0.00 0.09 0.00 98 1020.1
20260508085046 49 188 0.9 2.6 0.00 0.09 0.00 98 1020.1
20260508084046 49 34 1.7 3.5 0.00 0.10 0.00 98 1020.0
20260508083045 49 219 0.9 3.5 0.00 0.10 0.00 98 1019.9
20260508082046 50 34 0.9 2.6 0.00 0.10 0.00 98 1020.0
20260508081046 49 322 0.9 2.6 0.00 0.10 0.00 98 1019.9
20260508080045 49 282 0.9 2.6 0.00 0.10 0.00 98 1020.0
20260508075106 50 136 0.9 2.6 0.00 0.10 0.00 98 1020.2
20260508074046 49 10 2.6 4.3 0.00 0.10 0.00 98 1020.1
20260508073046 49 271 0.9 2.6 0.00 0.10 0.00 98 1020.0
20260508072046 49 329 1.7 3.5 0.00 0.10 0.00 98 1020.2
20260508071046 49 318 0.9 1.7 0.00 0.10 0.00 98 1020.4
20260508070045 50 313 0.9 1.7 0.00 0.10 0.00 98 1020.2
20260508065046 50 1 0.0 1.7 0.00 0.10 0.00 98 1020.3
20260508064046 50 318 0.0 1.7 0.00 0.10 0.00 98 1020.3
20260508063047 50 318 0.9 1.7 0.00 0.10 0.00 98 1020.2
20260508062046 50 213 0.0 1.7 0.00 0.10 0.00 98 1020.2
20260508061046 49 338 0.9 1.7 0.00 0.10 0.00 98 1020.2
20260508060045 49 324 0.0 0.9 0.00 0.10 0.00 98 1020.3
20260508055045 49 0.0 0.9 0.00 0.10 0.00 98 1020.3
20260508054045 49 314 0.0 0.9 0.00 0.10 0.00 98 1020.3
20260508053045 49 0.0 0.9 0.00 0.10 0.00 98 1020.4
20260508052045 49 269 0.0 1.7 0.00 0.10 0.00 98 1020.4
20260508051045 49 0.0 0.9 0.00 0.10 0.00 98 1020.5
20260508050106 49 0.0 0.9 0.00 0.10 0.00 98 1020.4
20260508045046 49 301 0.0 1.7 0.00 0.10 0.00 97 1020.2
20260508044046 49 334 0.9 1.7 0.00 0.10 0.00 97 1020.1
20260508043046 49 0.0 0.9 0.00 0.10 0.00 97 1020.1
20260508042045 49 335 0.9 1.7 0.00 0.10 0.00 97 1020.1
20260508041106 49 255 0.0 0.9 0.00 0.10 0.00 97 1020.0
20260508040105 49 0.0 1.7 0.00 0.10 0.10 97 1020.0
20260508035106 49 319 0.9 1.7 0.00 0.10 0.10 97 1019.9
20260508034046 50 0.0 0.9 0.00 0.10 0.10 97 1019.7
20260508033046 50 342 0.9 1.7 0.00 0.10 0.10 97 1019.8